User: anonymous   Login
Location: *
(37.5724°S, 58.0067°E)
Time: 11:00:42
(UTC+00:00)
Language:

Okean O Rocket - Orbit

View from above orbital plane
View from above orbital plane
View from above satellite
View from above satellite

Ground track
Ground track

The orbit data is extracted from the following two-line orbital elements,

1 25861U 99039B   20337.79081037  .00000121  00000-0  24025-4 0  9993
2 25861  98.2095 343.2910 0015180 341.9968 190.8186 14.78605760152492
Epoch (UTC): 02 December 2020 18:58:46
Eccentricity: 0.0015180
inclination: 98.2095°
perigee height: 623 km
apogee height: 644 km
right ascension of ascending node: 343.2910°
argument of perigee: 341.9968°
revolutions per day: 14.78605760
mean anomaly at epoch: 190.8186°
orbit number at epoch: 15249

The dashed part of the orbit path shows where the satellite is in the earth's shadow,  

DLR